Home > Weather > Osorno > Past weeks

Flag for Chile Past Weather in Osorno, Chile — Yesterday and Last 2 Weeks

Now
54 °F

Broken clouds.


Feels Like: 53 °F
Forecast: N/A
Wind: 5 mph from Northeast

Location: Puerto Montt Airport

Current Time: Aug 28, 2016 at 7:36:21 PM

Latest Report: Aug 28, 2016 at 7:00 PM


Visibility: N/A

Pressure: 30.21 "Hg

Humidity: 77%

Dew Point: 46 °F

Location of OsornoLocation

Past Weather in Osorno — Graph

°F

Osorno Temperature Yesterday

Maximum temperature yesterday: 52 °F (at 3:00 PM)
Minimum temperature yesterday: 30 °F (at 5:00 AM)
Average temperature yesterday: 41 °F

High & Low Weather Summary for the Past Weeks

 TemperatureHumidityPressure
High57 °F (Aug 23, 4:00 PM)100% (Aug 13, 5:00 PM)30.57 "Hg (Aug 13, 5:00 PM)
Low28 °F (Aug 20, 8:00 AM)50% (Aug 20, 4:00 PM)29.50 "Hg (Aug 15, 9:00 PM)
Average46 °F87%30.04 "Hg
* Reported Aug 13 5:00 PM — Aug 28 6:00 PM, Osorno, Weather by CustomWeather, © 2016

Note: Actual official high and low records may vary slightly from our data, if they occured in-between our weather recording intervals... More about our weather records

Advertising

Osorno Weather History for the Previous 24 Hours

Scroll right to see more
 ConditionsComfort  
Time TempWeatherWind HumidityBarometerVisibility
6:00 PM
Sun, Aug 28
55 °FBroken clouds.6 mph72%30.18 "HgN/A
5:00 PM55 °FBroken clouds.12 mph67%30.18 "HgN/A
4:00 PM55 °FPartly sunny.10 mph63%30.18 "HgN/A
3:00 PM55 °FBroken clouds.15 mph63%30.18 "HgN/A
2:00 PM55 °FSunny.16 mph63%30.18 "Hg10 mi
1:00 PM54 °FPartly sunny.17 mph63%30.18 "HgN/A
12:00 PM52 °FSunny.14 mph62%30.18 "Hg10 mi
11:00 AM52 °FSunny.17 mph67%30.18 "Hg10 mi
10:00 AM48 °FSunny.10 mph76%30.18 "Hg10 mi
9:00 AM48 °FSunny.8 mph76%30.15 "Hg10 mi
8:00 AM46 °FPassing clouds.12 mph76%30.12 "HgN/A
7:00 AM46 °FOvercast.8 mph76%30.12 "HgN/A
6:00 AM45 °FPassing clouds.7 mph87%30.12 "HgN/A
5:00 AM45 °FPassing clouds.8 mph81%30.12 "HgN/A
4:00 AM46 °FClear.7 mph76%30.12 "Hg10 mi
3:00 AM46 °FClear.6 mph76%30.12 "Hg10 mi
2:00 AM45 °FClear.9 mph81%30.12 "Hg10 mi
1:00 AM45 °FClear.10 mph76%30.12 "Hg10 mi
12:00 AM43 °FClear.7 mph81%30.12 "Hg10 mi
11:00 PM
Sat, Aug 27
45 °FClear.8 mph76%30.15 "Hg10 mi
10:00 PM46 °FClear.7 mph71%30.12 "Hg10 mi
9:00 PM45 °FPartly cloudy.5 mph81%30.12 "HgN/A
8:00 PM46 °FClear.3 mph76%30.12 "Hg10 mi
7:00 PM48 °FBroken clouds.5 mph71%30.12 "HgN/A
Weather by CustomWeather, © 2016

See weather overviewHow to use our weather pages